TimePST,TemperatureF,Dew PointF,Humidity,Sea Level PressureIn,VisibilityMPH,Wind Direction,Wind SpeedMPH,Gust SpeedMPH,PrecipitationIn,Events,Conditions,WindDirDegrees,DateUTC
12:52 AM,46.9,30.0,52,30.16,10.0,Calm,Calm,-,N/A,,Clear,0,2012-12-10 08:52:00
1:52 AM,45.0,30.9,58,30.17,10.0,SSW,3.5,-,N/A,,Clear,210,2012-12-10 09:52:00
2:52 AM,45.0,30.9,58,30.17,10.0,Calm,Calm,-,N/A,,Clear,0,2012-12-10 10:52:00
3:52 AM,45.0,32.0,60,30.17,10.0,NNW,3.5,-,N/A,,Clear,330,2012-12-10 11:52:00
4:52 AM,44.1,32.0,63,30.17,10.0,North,4.6,-,N/A,,Clear,350,2012-12-10 12:52:00
5:52 AM,37.9,30.0,73,30.17,10.0,Calm,Calm,-,N/A,,Clear,0,2012-12-10 13:52:00
6:52 AM,37.0,30.9,79,30.18,10.0,NNW,3.5,-,N/A,,Clear,330,2012-12-10 14:52:00
7:52 AM,48.0,32.0,54,30.18,10.0,Calm,Calm,-,N/A,,Clear,0,2012-12-10 15:52:00
8:52 AM,57.9,32.0,37,30.19,10.0,Calm,Calm,-,N/A,,Clear,0,2012-12-10 16:52:00
9:52 AM,64.0,36.0,35,30.19,10.0,SSE,6.9,-,N/A,,Clear,150,2012-12-10 17:52:00
10:52 AM,68.0,30.0,24,30.18,9.0,SSE,8.1,-,N/A,,Clear,150,2012-12-10 18:52:00
11:52 AM,69.1,28.0,22,30.14,10.0,Variable,5.8,-,N/A,,Clear,0,2012-12-10 19:52:00
12:52 PM,70.0,28.9,22,30.11,10.0,ESE,4.6,-,N/A,,Clear,120,2012-12-10 20:52:00
1:52 PM,70.0,30.0,23,30.07,10.0,SE,4.6,-,N/A,,Clear,130,2012-12-10 21:52:00
2:52 PM,70.0,28.9,22,30.06,10.0,South,4.6,-,N/A,,Clear,180,2012-12-10 22:52:00
3:52 PM,69.1,30.9,24,30.05,10.0,South,4.6,-,N/A,,Clear,170,2012-12-10 23:52:00
4:52 PM,57.9,34.0,41,30.03,10.0,SSE,3.5,-,N/A,,Clear,150,2012-12-11 00:52:00
5:52 PM,51.1,32.0,48,30.04,10.0,Calm,Calm,-,N/A,,Clear,0,2012-12-11 01:52:00
6:52 PM,48.0,33.1,56,30.04,10.0,Calm,Calm,-,N/A,,Clear,0,2012-12-11 02:52:00
7:52 PM,45.0,32.0,60,30.05,10.0,West,4.6,-,N/A,,Clear,260,2012-12-11 03:52:00
8:52 PM,45.0,33.1,63,30.05,10.0,Calm,Calm,-,N/A,,Clear,0,2012-12-11 04:52:00
9:52 PM,48.0,34.0,58,30.06,10.0,NNW,5.8,-,N/A,,Clear,330,2012-12-11 05:52:00
10:52 PM,44.1,33.1,65,30.05,10.0,Calm,Calm,-,N/A,,Clear,0,2012-12-11 06:52:00
11:52 PM,50.0,33.1,52,30.05,10.0,North,3.5,-,N/A,,Clear,360,2012-12-11 07:52:00